Weather History for Wabush Lake, NL

Change the Weather History Date:

Monday, June 17, 2013

  Actual Average Record
Temperature  
Mean Temperature 42 °F -  
Max Temperature 58 °F 63 °F 81 °F (2012)
Min Temperature 27 °F 44 °F 27 °F (2013)
Degree Days  
Heating Degree Days 22    
Moisture  
Dew Point 31 °F    
Average Humidity 60    
Maximum Humidity 100    
Minimum Humidity 25    
Precipitation  
Precipitation 0.00 in 0.13 in - ()
Sea Level Pressure  
Sea Level Pressure 29.88 in    
Wind  
Wind Speed 4 mph ()    
Max Wind Speed 12 mph    
Max Gust Speed 20 mph    
Visibility 15.0 miles    
Events      
Averages and records for this station are not official NWS values.
T = Trace of Precipitation, MM = Missing Value Source: Averaged Metar Reports

Daily Weather History Graph

Daily Weather History Graph

Search for Another Location

Airport:

Trip Planner

Search our weather history database for the weather conditions in past years. The results will help you decide how hot, cold, wet, or windy it might be!

Date:

Astronomy

Jun. 17, 2013 Rise Set
Actual Time 5:01 AM ADT 9:55 PM ADT
Civil Twilight 4:10 AM ADT 10:46 PM ADT
Nautical Twilight 2:42 AM ADT 12:14 AM ADT
Astronomical Twilight Sun does not rise Sun does not rise
Moon 2:47 PM ADT (6/17) 1:23 AM ADT (6/17)
Length of Visible Light 18h 36m
Length of Day
16h 54m
First Quarter, 59% of the Moon is Illuminated
Jun 17
First Quarter
Jun 23
Full
Jun 30
Last Quarter
Jul 8
New
Jul 16
First Quarter

Hourly Weather History & Observations

Time (ADT) Temp. Windchill Dew Point Humidity Pressure Visibility Wind Dir Wind Speed Gust Speed Precip Events Conditions
12:00 AM 37.4 °F 33.8 °F 32.0 °F 81% 29.84 in 15.0 mi West 4.6 mph - N/A   Partly Cloudy
1:00 AM 32.0 °F - 30.2 °F 93% 29.85 in 15.0 mi Calm Calm - N/A   Partly Cloudy
2:00 AM 32.0 °F - 30.2 °F 93% 29.85 in 15.0 mi Calm Calm - N/A   Clear
3:00 AM 31 °F - 29 °F 91% 29.86 in 15 mi South 3.5 mph - -  
3:00 AM 30.2 °F 26.7 °F 28.4 °F 93% 29.86 in 15.0 mi South 3.5 mph - N/A   Clear
4:00 AM 30.2 °F 26.7 °F 28.4 °F 93% 29.86 in 15.0 mi West 3.5 mph - N/A   Clear
5:00 AM 28.4 °F 23.3 °F 28.4 °F 100% 29.87 in 15.0 mi South 4.6 mph - N/A   Clear
6:00 AM 30.2 °F - 28.4 °F 93% 29.87 in 15.0 mi Calm Calm - N/A   Clear
7:00 AM 37.4 °F 33.8 °F 33.8 °F 87% 29.88 in 15.0 mi SW 4.6 mph - N/A   Partly Cloudy
8:00 AM 42.8 °F 40.1 °F 33.8 °F 70% 29.88 in 15.0 mi West 4.6 mph - N/A   Scattered Clouds
9:00 AM 46 °F - 29 °F 40% 29.88 in 15 mi WNW 5.8 mph - -  
9:00 AM 46.4 °F 42.4 °F 30.2 °F 53% 29.88 in 15.0 mi NW 8.1 mph - N/A   Partly Cloudy
10:00 AM 46.4 °F 45.2 °F 30.2 °F 53% 29.89 in 15.0 mi North 3.5 mph - N/A   Scattered Clouds
11:00 AM 50.0 °F - 32.0 °F 50% 29.88 in 15.0 mi NE 11.5 mph - N/A   Scattered Clouds
12:00 PM 50.0 °F - 30.2 °F 47% 29.88 in 15.0 mi Calm Calm - N/A   Scattered Clouds
1:00 PM 53.6 °F - 32.0 °F 44% 29.88 in 15.0 mi NNW 6.9 mph 19.6 mph N/A   Scattered Clouds
2:00 PM 55.4 °F - 30.2 °F 38% 29.88 in 15.0 mi Variable 4.6 mph - N/A   Mostly Cloudy
3:00 PM 58 °F - 32 °F 25% 29.87 in 15 mi NW 2.3 mph - -  
3:00 PM 57.2 °F - 32.0 °F 38% 29.87 in 15.0 mi Variable 9.2 mph - N/A   Mostly Cloudy
4:00 PM 57.2 °F - 30.2 °F 36% 29.88 in 15.0 mi North 4.6 mph - N/A   Mostly Cloudy
5:00 PM 55.4 °F - 30.2 °F 38% 29.88 in 15.0 mi North 4.6 mph - N/A   Mostly Cloudy
6:00 PM 57.2 °F - 30.2 °F 36% 29.88 in 15.0 mi North 8.1 mph - N/A   Mostly Cloudy
7:00 PM 55.4 °F - 30.2 °F 38% 29.88 in 15.0 mi North 9.2 mph - N/A   Mostly Cloudy
8:00 PM 55.4 °F - 30.2 °F 38% 29.88 in 15.0 mi ENE 8.1 mph - N/A   Scattered Clouds
9:00 PM 51 °F - 32 °F 36% 29.90 in 15 mi NE 5.8 mph - -   Scattered Clouds
9:00 PM 51.8 °F - 32.0 °F 47% 29.89 in 15.0 mi NNE 5.8 mph - N/A   Mostly Cloudy
10:00 PM 48.2 °F - 32.0 °F 54% 29.91 in 15.0 mi NNE 5.8 mph - N/A   Mostly Cloudy
11:00 PM 44.6 °F 40.7 °F 33.8 °F 66% 29.93 in 15.0 mi NNE 6.9 mph - N/A   Mostly Cloudy